COSMOS 1690

导读

COSMOS 1690是独联体(CIS)发射的宇宙系列卫星,于1985年10月9日发射入轨。宇宙系列卫星是苏联/俄罗斯最庞大的卫星家族,涵盖军事侦察、科学实验、技术验证等多种任务。作为冷战时期的航天产物,该卫星体现了独联体在航天领域早期技术积累,多数宇宙系列卫星细节保密,推测其承担军事或空间科学相关任务,目前该卫星已完成设计使命,为后续航天发展积累了宝贵经验。

Basic Information
目录编号:
16138
目录名称:
COSMOS 1690
国际标识:
1985-094A
轨道中心:
EARTH
卫星名称:
COSMOS 1690
卫星全名:
--
卫星状态:
在轨 (已飞行14861 天)
发射日期:
1985-10-09 UTC
国别 :
俄罗斯(独联体) (CIS)
星等 :
--
Orbit Information
数据来源 国际轨道数据 AOE轨道数据
星历时间 2026-06-17T06:06:45+0800
16小时前
查看轨道信息
2026-06-17T02:00:00+0800
20小时前
查看轨道信息
半长轴 7775.979km 7775.958km
偏心率 0.0020462 0.0020472
轨道倾角 82.607° 82.605°
近地点辐角 295.962° 297.718°
升交点赤经 221.231° 221.342°
平近点角 237.676° 175.289°
近地点 1381.93km 1381.902km
远地点 1413.754km 1413.74km
周期 113.735分钟 113.734分钟
每日圈数 12.661064 12.661114
Detailed Information
使用方式:
暂无
2D Orbit Map
3D Orbit Map
Orbit Altitude Analysis Chart
Orbit Inclination Analysis Chart
Orbit Comprehensive Analysis Chart
View Comprehensive Chart